| time (UTC) | temp F | wind direction | speed knots | gust knots | rain 1hr in | rain 24hr in | rain mn in | humidity % | barometer mb |
| 20260502163101 | 66 | 254 | 14.8 | 24.3 | 0.00 | 0.00 | 0.00 | 52 | 1010.9 |
| 20260502161600 | 67 | 255 | 15.6 | 25.2 | 0.00 | 0.00 | 0.00 | 50 | 1011.1 |
| 20260502161304 | 67 | 263 | 14.8 | 22.6 | 0.00 | 0.00 | 0.00 | 50 | 1011.2 |
| 20260502160804 | 67 | 264 | 15.6 | 25.2 | 0.00 | 0.00 | 0.00 | 50 | 1011.2 |
| 20260502151612 | 67 | 255 | 15.6 | 21.7 | 0.00 | 0.00 | 0.00 | 52 | 1011.8 |
| 20260502151304 | 68 | 246 | 14.8 | 20.9 | 0.00 | 0.00 | 0.00 | 53 | 1011.9 |
| 20260502150804 | 68 | 243 | 13.0 | 17.4 | 0.00 | 0.00 | 0.00 | 53 | 1012.0 |
| 20260502150305 | 67 | 254 | 13.0 | 21.7 | 0.00 | 0.00 | 0.00 | 53 | 1012.1 |
| 20260502130304 | 66 | 259 | 12.2 | 20.9 | 0.00 | 0.00 | 0.00 | 60 | 1013.7 |
| 20260502130109 | 65 | 243 | 13.9 | 20.9 | 0.00 | 0.00 | 0.00 | 59 | 1013.5 |
| 20260502123304 | 65 | 254 | 14.8 | 17.4 | 0.00 | 0.00 | 0.00 | 60 | 1013.9 |
| 20260502123105 | 65 | 239 | 12.2 | 17.4 | 0.00 | 0.00 | 0.00 | 59 | 1013.8 |
| 20260502121804 | 65 | 255 | 13.9 | 17.4 | 0.00 | 0.00 | 0.00 | 60 | 1013.9 |
| 20260502121608 | 65 | 243 | 13.9 | 17.4 | 0.00 | 0.00 | 0.00 | 60 | 1013.9 |
| 20260502121304 | 65 | 253 | 13.9 | 17.4 | 0.00 | 0.00 | 0.00 | 60 | 1014.0 |
| 20260502120804 | 65 | 250 | 13.0 | 17.4 | 0.00 | 0.00 | 0.00 | 61 | 1014.1 |
| 20260502120304 | 65 | 251 | 13.9 | 18.2 | 0.00 | 0.00 | 0.00 | 61 | 1014.2 |
| 20260502120104 | 64 | 256 | 14.8 | 18.2 | 0.00 | 0.00 | 0.00 | 61 | 1014.1 |
| 20260502114804 | 65 | 249 | 15.6 | 18.2 | 0.00 | 0.00 | 0.00 | 60 | 1014.3 |
| 20260502114556 | 64 | 252 | 13.0 | 20.0 | 0.00 | 0.00 | 0.00 | 60 | 1014.4 |
| 20260502114304 | 65 | 255 | 15.6 | 19.1 | 0.00 | 0.00 | 0.00 | 60 | 1014.4 |
| 20260502113804 | 65 | 247 | 14.8 | 18.2 | 0.00 | 0.00 | 0.00 | 61 | 1014.3 |
| 20260502113304 | 64 | 262 | 13.0 | 19.1 | 0.00 | 0.00 | 0.00 | 61 | 1014.4 |
| 20260502113100 | 64 | 242 | 13.0 | 20.0 | 0.00 | 0.00 | 0.00 | 61 | 1014.4 |
| 20260502111804 | 65 | 246 | 15.6 | 19.1 | 0.00 | 0.00 | 0.00 | 60 | 1014.5 |
| 20260502111601 | 65 | 241 | 14.8 | 19.1 | 0.00 | 0.00 | 0.00 | 59 | 1014.4 |
| 20260502110804 | 65 | 249 | 15.6 | 18.2 | 0.00 | 0.00 | 0.00 | 61 | 1014.6 |
| 20260502110304 | 64 | 253 | 13.0 | 18.2 | 0.00 | 0.00 | 0.00 | 60 | 1014.6 |
| 20260502104804 | 65 | 251 | 11.3 | 17.4 | 0.00 | 0.00 | 0.00 | 59 | 1014.6 |
| 20260502104557 | 65 | 252 | 13.0 | 20.0 | 0.00 | 0.00 | 0.00 | 58 | 1014.7 |
| 20260502104304 | 65 | 247 | 14.8 | 18.2 | 0.00 | 0.00 | 0.00 | 59 | 1014.7 |
| 20260502103304 | 64 | 249 | 14.8 | 19.1 | 0.00 | 0.00 | 0.00 | 61 | 1014.9 |
| 20260502103106 | 64 | 253 | 12.2 | 20.0 | 0.00 | 0.00 | 0.00 | 60 | 1014.9 |
| 20260502101804 | 64 | 240 | 13.9 | 17.4 | 0.00 | 0.00 | 0.00 | 61 | 1015.1 |
| 20260502101621 | 63 | 245 | 12.2 | 19.1 | 0.00 | 0.00 | 0.00 | 60 | 1014.9 |
| 20260502100804 | 64 | 255 | 13.9 | 19.1 | 0.00 | 0.00 | 0.00 | 59 | 1015.3 |
| 20260502100304 | 64 | 246 | 13.9 | 20.0 | 0.00 | 0.00 | 0.00 | 59 | 1015.4 |
| 20260502100116 | 64 | 244 | 14.8 | 20.9 | 0.00 | 0.00 | 0.00 | 59 | 1015.3 |
| 20260502091304 | 63 | 255 | 14.8 | 20.9 | 0.00 | 0.00 | 0.00 | 62 | 1015.7 |
| 20260502090804 | 63 | 233 | 14.8 | 21.7 | 0.00 | 0.00 | 0.00 | 63 | 1015.7 |
| 20260502090304 | 62 | 252 | 14.8 | 19.1 | 0.00 | 0.00 | 0.00 | 63 | 1015.7 |
| 20260502080109 | 62 | 229 | 12.2 | 20.0 | 0.00 | 0.00 | 0.00 | 60 | 1016.0 |
| 20260502071304 | 61 | 245 | 13.9 | 19.1 | 0.00 | 0.00 | 0.00 | 64 | 1016.0 |
| 20260502070804 | 61 | 244 | 11.3 | 17.4 | 0.00 | 0.00 | 0.00 | 65 | 1016.1 |
| 20260502070305 | 61 | 255 | 12.2 | 17.4 | 0.00 | 0.00 | 0.00 | 64 | 1016.2 |
| 20260502070057 | 61 | 264 | 10.4 | 17.4 | 0.00 | 0.00 | 0.00 | 64 | 1016.2 |
| 20260502064804 | 60 | 236 | 11.3 | 18.2 | 0.00 | 0.00 | 0.00 | 68 | 1016.1 |
| 20260502064600 | 60 | 239 | 11.3 | 16.5 | 0.00 | 0.00 | 0.00 | 68 | 1016.2 |
| 20260502064304 | 60 | 242 | 8.7 | 13.9 | 0.00 | 0.00 | 0.00 | 69 | 1016.3 |
| 20260502063804 | 59 | 227 | 12.2 | 17.4 | 0.00 | 0.00 | 0.00 | 70 | 1016.3 |
| 20260502063304 | 59 | 237 | 8.7 | 17.4 | 0.00 | 0.00 | 0.00 | 71 | 1016.4 |
| 20260502063104 | 58 | 249 | 7.8 | 14.8 | 0.00 | 0.00 | 0.00 | 71 | 1016.3 |
| 20260502061558 | 57 | 236 | 11.3 | 19.1 | 0.00 | 0.00 | 0.00 | 71 | 1016.4 |
| 20260502061304 | 58 | 242 | 8.7 | 12.2 | 0.00 | 0.00 | 0.00 | 72 | 1016.7 |
| 20260502060804 | 57 | 222 | 11.3 | 17.4 | 0.00 | 0.00 | 0.00 | 72 | 1016.6 |
| 20260502060306 | 57 | 227 | 10.4 | 17.4 | 0.00 | 0.00 | 0.00 | 71 | 1016.6 |
| 20260502060111 | 57 | 235 | 10.4 | 17.4 | 0.00 | 0.00 | 0.00 | 71 | 1016.6 |
| 20260502054804 | 57 | 235 | 12.2 | 15.6 | 0.00 | 0.00 | 0.00 | 72 | 1016.7 |
| 20260502054603 | 56 | 239 | 10.4 | 15.6 | 0.00 | 0.00 | 0.00 | 72 | 1016.6 |
| 20260502054304 | 57 | 232 | 11.3 | 15.6 | 0.00 | 0.00 | 0.00 | 73 | 1016.8 |
| 20260502053804 | 56 | 227 | 10.4 | 15.6 | 0.00 | 0.00 | 0.00 | 73 | 1016.8 |
| 20260502053305 | 56 | 229 | 10.4 | 14.8 | 0.00 | 0.00 | 0.00 | 74 | 1016.8 |
| 20260502053107 | 55 | 235 | 8.7 | 13.9 | 0.00 | 0.00 | 0.00 | 74 | 1016.7 |
| 20260502051804 | 55 | 236 | 11.3 | 17.4 | 0.00 | 0.00 | 0.00 | 76 | 1016.9 |
| 20260502051603 | 54 | 225 | 9.6 | 16.5 | 0.00 | 0.00 | 0.00 | 76 | 1016.9 |
| 20260502051304 | 54 | 233 | 10.4 | 17.4 | 0.00 | 0.00 | 0.00 | 77 | 1017.0 |
| 20260502050804 | 54 | 224 | 8.7 | 13.9 | 0.00 | 0.00 | 0.00 | 78 | 1017.0 |
| 20260502050304 | 54 | 220 | 11.3 | 14.8 | 0.00 | 0.00 | 0.00 | 78 | 1017.1 |
| 20260502050100 | 53 | 225 | 10.4 | 14.8 | 0.00 | 0.00 | 0.00 | 78 | 1017.0 |
| 20260502044804 | 53 | 218 | 10.4 | 13.0 | 0.00 | 0.00 | 0.00 | 79 | 1017.2 |
| 20260502044559 | 52 | 230 | 10.4 | 15.6 | 0.00 | 0.00 | 0.00 | 78 | 1017.2 |
| 20260502044304 | 53 | 220 | 11.3 | 13.0 | 0.00 | 0.00 | 0.00 | 79 | 1017.2 |
| 20260502043804 | 53 | 216 | 11.3 | 15.6 | 0.00 | 0.00 | 0.00 | 79 | 1017.3 |
| 20260502043304 | 53 | 223 | 11.3 | 17.4 | 0.00 | 0.00 | 0.00 | 79 | 1017.4 |
| 20260502043114 | 52 | 206 | 10.4 | 16.5 | 0.00 | 0.00 | 0.00 | 79 | 1017.3 |
| 20260502041559 | 52 | 212 | 12.2 | 14.8 | 0.00 | 0.00 | 0.00 | 80 | 1017.5 |
| 20260502041304 | 52 | 224 | 11.3 | 14.8 | 0.00 | 0.00 | 0.00 | 80 | 1017.6 |
| 20260502040804 | 52 | 221 | 11.3 | 14.8 | 0.00 | 0.00 | 0.00 | 81 | 1017.5 |
| 20260502040305 | 51 | 218 | 11.3 | 14.8 | 0.00 | 0.00 | 0.00 | 81 | 1017.5 |
| 20260502040055 | 51 | 225 | 9.6 | 14.8 | 0.00 | 0.00 | 0.00 | 81 | 1017.5 |
| 20260502034804 | 51 | 216 | 10.4 | 14.8 | 0.00 | 0.00 | 0.00 | 82 | 1017.8 |
| 20260502034558 | 50 | 221 | 10.4 | 13.9 | 0.00 | 0.00 | 0.00 | 81 | 1017.8 |
| 20260502034304 | 51 | 210 | 11.3 | 13.9 | 0.00 | 0.00 | 0.00 | 82 | 1017.8 |
| 20260502033804 | 51 | 210 | 10.4 | 13.0 | 0.00 | 0.00 | 0.00 | 82 | 1017.9 |
| 20260502033059 | 50 | 214 | 8.7 | 13.0 | 0.00 | 0.00 | 0.00 | 82 | 1018.0 |
| 20260502031804 | 50 | 215 | 9.6 | 12.2 | 0.00 | 0.00 | 0.00 | 82 | 1018.1 |
| 20260502031557 | 50 | 217 | 9.6 | 12.2 | 0.00 | 0.00 | 0.00 | 82 | 1018.2 |
| 20260502031304 | 50 | 212 | 9.6 | 11.3 | 0.00 | 0.00 | 0.00 | 82 | 1018.2 |
| 20260502030804 | 50 | 208 | 9.6 | 12.2 | 0.00 | 0.00 | 0.00 | 82 | 1018.3 |
| 20260502030304 | 50 | 211 | 8.7 | 11.3 | 0.00 | 0.00 | 0.00 | 82 | 1018.4 |
| 20260502030100 | 50 | 206 | 7.8 | 11.3 | 0.00 | 0.00 | 0.00 | 82 | 1018.4 |
| 20260502024805 | 50 | 208 | 7.8 | 11.3 | 0.00 | 0.00 | 0.00 | 82 | 1018.5 |
| 20260502024558 | 50 | 209 | 8.7 | 11.3 | 0.00 | 0.00 | 0.00 | 82 | 1018.5 |
| 20260502024304 | 50 | 208 | 7.8 | 10.4 | 0.00 | 0.00 | 0.00 | 82 | 1018.5 |
| 20260502023804 | 50 | 208 | 7.8 | 11.3 | 0.00 | 0.00 | 0.00 | 82 | 1018.7 |
| 20260502023101 | 50 | 212 | 7.8 | 11.3 | 0.00 | 0.00 | 0.00 | 82 | 1018.8 |
| 20260502021804 | 50 | 213 | 8.7 | 12.2 | 0.00 | 0.00 | 0.00 | 82 | 1018.9 |
| 20260502021601 | 50 | 218 | 8.7 | 12.2 | 0.00 | 0.00 | 0.00 | 82 | 1018.8 |
| 20260502020804 | 50 | 205 | 8.7 | 11.3 | 0.00 | 0.00 | 0.00 | 82 | 1019.0 |
| 20260502020304 | 50 | 198 | 7.8 | 10.4 | 0.00 | 0.00 | 0.00 | 82 | 1019.1 |
| 20260502020058 | 50 | 205 | 7.8 | 10.4 | 0.00 | 0.00 | 0.00 | 81 | 1019.0 |
| 20260502014804 | 50 | 199 | 7.8 | 10.4 | 0.00 | 0.00 | 0.00 | 81 | 1019.4 |
| 20260502014558 | 50 | 202 | 8.7 | 10.4 | 0.00 | 0.00 | 0.00 | 81 | 1019.3 |
| 20260502013804 | 50 | 202 | 7.8 | 10.4 | 0.00 | 0.00 | 0.00 | 81 | 1019.5 |
| 20260502013304 | 50 | 206 | 8.7 | 10.4 | 0.00 | 0.00 | 0.00 | 81 | 1019.5 |
| 20260502013059 | 50 | 200 | 8.7 | 10.4 | 0.00 | 0.00 | 0.00 | 80 | 1019.6 |
| 20260502011804 | 50 | 202 | 7.8 | 10.4 | 0.00 | 0.00 | 0.00 | 80 | 1019.8 |
| 20260502011610 | 49 | 205 | 7.0 | 10.4 | 0.00 | 0.00 | 0.00 | 80 | 1019.8 |
| 20260502011304 | 50 | 202 | 7.8 | 10.4 | 0.00 | 0.00 | 0.00 | 80 | 1019.8 |
| 20260502010804 | 49 | 203 | 7.8 | 10.4 | 0.00 | 0.00 | 0.00 | 79 | 1019.9 |
| 20260502010304 | 49 | 205 | 7.8 | 10.4 | 0.00 | 0.00 | 0.00 | 79 | 1020.0 |
| 20260502010058 | 49 | 203 | 7.8 | 10.4 | 0.00 | 0.00 | 0.00 | 78 | 1020.0 |
| 20260502004804 | 49 | 206 | 7.0 | 8.7 | 0.00 | 0.00 | 0.00 | 78 | 1020.2 |
| 20260502004606 | 49 | 208 | 6.1 | 7.8 | 0.00 | 0.00 | 0.00 | 77 | 1020.2 |
| 20260502004304 | 49 | 206 | 6.1 | 7.8 | 0.00 | 0.00 | 0.00 | 77 | 1020.3 |
| 20260502003804 | 49 | 203 | 6.1 | 7.0 | 0.00 | 0.00 | 0.00 | 77 | 1020.4 |
| 20260502003305 | 49 | 203 | 5.2 | 8.7 | 0.00 | 0.00 | 0.00 | 76 | 1020.5 |
| 20260502003101 | 49 | 210 | 5.2 | 8.7 | 0.00 | 0.00 | 0.00 | 75 | 1020.4 |
| 20260502001805 | 51 | 208 | 7.0 | 7.8 | 0.00 | 0.00 | 0.00 | 76 | 1020.5 |
| 20260502001557 | 50 | 212 | 6.1 | 8.7 | 0.00 | 0.00 | 0.00 | 76 | 1020.5 |
| 20260502001304 | 51 | 204 | 7.0 | 8.7 | 0.00 | 0.00 | 0.00 | 76 | 1020.5 |
| 20260502000304 | 51 | 201 | 6.1 | 10.4 | 0.00 | 0.00 | 0.00 | 76 | 1020.6 |
| 20260502000113 | 50 | 210 | 7.0 | 9.6 | 0.00 | 0.00 | 0.00 | 75 | 1020.6 |
| 20260501234804 | 51 | 206 | 7.0 | 8.7 | 0.00 | 0.00 | 0.00 | 75 | 1020.8 |
| 20260501234559 | 51 | 217 | 7.0 | 8.7 | 0.00 | 0.00 | 0.00 | 74 | 1020.6 |
| 20260501234305 | 51 | 199 | 7.0 | 7.8 | 0.00 | 0.00 | 0.00 | 75 | 1020.7 |
| 20260501233804 | 52 | 208 | 7.0 | 7.8 | 0.00 | 0.00 | 0.00 | 75 | 1020.8 |
| 20260501233305 | 52 | 211 | 6.1 | 10.4 | 0.00 | 0.00 | 0.00 | 75 | 1020.9 |
| 20260501233058 | 51 | 218 | 7.0 | 10.4 | 0.00 | 0.00 | 0.00 | 74 | 1020.7 |
| 20260501231804 | 51 | 216 | 6.1 | 8.7 | 0.00 | 0.00 | 0.00 | 73 | 1021.0 |
| 20260501231606 | 51 | 219 | 5.2 | 9.6 | 0.00 | 0.00 | 0.00 | 72 | 1021.1 |
| 20260501231304 | 52 | 212 | 6.1 | 8.7 | 0.00 | 0.00 | 0.00 | 72 | 1021.1 |
| 20260501230804 | 53 | 212 | 6.1 | 10.4 | 0.00 | 0.00 | 0.00 | 72 | 1021.0 |
| 20260501230305 | 53 | 215 | 6.1 | 10.4 | 0.00 | 0.00 | 0.00 | 72 | 1021.1 |
| 20260501230057 | 53 | 227 | 5.2 | 8.7 | 0.00 | 0.00 | 0.00 | 72 | 1021.1 |
| 20260501224804 | 54 | 227 | 7.0 | 10.4 | 0.00 | 0.00 | 0.00 | 72 | 1021.2 |
| 20260501224603 | 53 | 242 | 7.0 | 12.2 | 0.00 | 0.00 | 0.00 | 71 | 1021.1 |
| 20260501224304 | 54 | 231 | 8.7 | 11.3 | 0.00 | 0.00 | 0.00 | 71 | 1021.3 |
| 20260501223804 | 54 | 227 | 7.8 | 10.4 | 0.00 | 0.00 | 0.00 | 71 | 1021.3 |
| 20260501223304 | 54 | 234 | 8.7 | 12.2 | 0.00 | 0.00 | 0.00 | 70 | 1021.3 |
| 20260501223114 | 54 | 228 | 7.0 | 11.3 | 0.00 | 0.00 | 0.00 | 70 | 1021.3 |
| 20260501221804 | 55 | 232 | 8.7 | 13.0 | 0.00 | 0.00 | 0.00 | 70 | 1021.4 |
| 20260501221617 | 54 | 217 | 7.8 | 14.8 | 0.00 | 0.00 | 0.00 | 69 | 1021.3 |
| 20260501221304 | 55 | 240 | 8.7 | 13.0 | 0.00 | 0.00 | 0.00 | 69 | 1021.3 |
| 20260501220826 | 54 | 235 | 9.6 | 13.0 | 0.00 | 0.00 | 0.00 | 69 | 1021.4 |
| 20260501220057 | 54 | 234 | 10.4 | 13.9 | 0.00 | 0.00 | 0.00 | 68 | 1021.3 |
| 20260501214557 | 54 | 210 | 8.7 | 12.2 | 0.00 | 0.00 | 0.00 | 67 | 1021.5 |
| 20260501214304 | 54 | 228 | 8.7 | 11.3 | 0.00 | 0.00 | 0.00 | 67 | 1021.5 |
| 20260501213804 | 55 | 227 | 9.6 | 12.2 | 0.00 | 0.00 | 0.00 | 67 | 1021.6 |
| 20260501213304 | 54 | 231 | 10.4 | 13.0 | 0.00 | 0.00 | 0.00 | 66 | 1021.7 |
| 20260501213057 | 54 | 223 | 9.6 | 12.2 | 0.00 | 0.00 | 0.00 | 66 | 1021.6 |
| 20260501211804 | 55 | 224 | 8.7 | 11.3 | 0.00 | 0.00 | 0.00 | 65 | 1021.9 |
| 20260501211559 | 54 | 226 | 8.7 | 11.3 | 0.00 | 0.00 | 0.00 | 64 | 1021.8 |
| 20260501211306 | 55 | 225 | 8.7 | 11.3 | 0.00 | 0.00 | 0.00 | 65 | 1022.0 |
| 20260501210804 | 55 | 222 | 8.7 | 11.3 | 0.00 | 0.00 | 0.00 | 64 | 1022.0 |
| 20260501210304 | 55 | 224 | 8.7 | 12.2 | 0.00 | 0.00 | 0.00 | 64 | 1022.0 |
| 20260501210057 | 54 | 239 | 9.6 | 12.2 | 0.00 | 0.00 | 0.00 | 63 | 1022.0 |
| 20260501204804 | 54 | 227 | 7.8 | 11.3 | 0.00 | 0.00 | 0.00 | 64 | 1022.2 |
| 20260501204556 | 54 | 227 | 7.8 | 13.0 | 0.00 | 0.00 | 0.00 | 63 | 1022.0 |
| 20260501204304 | 54 | 227 | 9.6 | 13.0 | 0.00 | 0.00 | 0.00 | 64 | 1022.1 |
| 20260501203804 | 54 | 225 | 10.4 | 12.2 | 0.00 | 0.00 | 0.00 | 64 | 1022.2 |
| 20260501203304 | 54 | 222 | 9.6 | 12.2 | 0.00 | 0.00 | 0.00 | 64 | 1022.2 |
| 20260501203056 | 53 | 223 | 8.7 | 12.2 | 0.00 | 0.00 | 0.00 | 64 | 1022.3 |
| 20260501201804 | 52 | 220 | 10.4 | 11.3 | 0.00 | 0.00 | 0.00 | 66 | 1022.5 |
| 20260501201556 | 52 | 212 | 9.6 | 11.3 | 0.00 | 0.00 | 0.00 | 66 | 1022.4 |
| 20260501201304 | 52 | 222 | 10.4 | 11.3 | 0.00 | 0.00 | 0.00 | 66 | 1022.4 |
| 20260501200805 | 52 | 221 | 8.7 | 10.4 | 0.00 | 0.00 | 0.00 | 66 | 1022.6 |
| 20260501200304 | 52 | 218 | 8.7 | 10.4 | 0.00 | 0.00 | 0.00 | 66 | 1022.6 |
| 20260501200056 | 52 | 215 | 7.8 | 9.6 | 0.00 | 0.00 | 0.00 | 65 | 1022.5 |
| 20260501194804 | 52 | 207 | 7.0 | 7.8 | 0.00 | 0.00 | 0.00 | 65 | 1022.7 |
| 20260501194557 | 52 | 210 | 6.1 | 8.7 | 0.00 | 0.00 | 0.00 | 65 | 1022.7 |
| 20260501193804 | 53 | 214 | 7.0 | 8.7 | 0.00 | 0.00 | 0.00 | 64 | 1022.9 |
| 20260501193057 | 53 | 214 | 5.2 | 7.8 | 0.00 | 0.00 | 0.00 | 63 | 1022.9 |
| 20260501191804 | 55 | 215 | 4.3 | 6.1 | 0.00 | 0.00 | 0.00 | 61 | 1023.0 |
| 20260501191558 | 54 | 215 | 4.3 | 7.8 | 0.00 | 0.00 | 0.00 | 60 | 1022.9 |
| 20260501191304 | 55 | 222 | 4.3 | 7.8 | 0.00 | 0.00 | 0.00 | 60 | 1023.1 |
| 20260501190804 | 56 | 228 | 4.3 | 7.8 | 0.00 | 0.00 | 0.00 | 59 | 1023.1 |
| 20260501190116 | 56 | 219 | 7.0 | 8.7 | 0.00 | 0.00 | 0.00 | 58 | 1023.0 |
| 20260501184804 | 57 | 227 | 6.1 | 7.8 | 0.00 | 0.00 | 0.00 | 58 | 1023.2 |
| 20260501184558 | 57 | 224 | 4.3 | 7.8 | 0.00 | 0.00 | 0.00 | 57 | 1023.1 |
| 20260501184304 | 58 | 224 | 6.1 | 7.8 | 0.00 | 0.00 | 0.00 | 57 | 1023.2 |
| 20260501183804 | 58 | 225 | 5.2 | 7.8 | 0.00 | 0.00 | 0.00 | 56 | 1023.1 |
| 20260501183304 | 58 | 228 | 4.3 | 7.8 | 0.00 | 0.00 | 0.00 | 56 | 1023.2 |
| 20260501183101 | 58 | 221 | 3.5 | 7.8 | 0.00 | 0.00 | 0.00 | 55 | 1023.2 |
| 20260501181556 | 58 | 244 | 5.2 | 9.6 | 0.00 | 0.00 | 0.00 | 57 | 1023.2 |
| 20260501181304 | 58 | 247 | 5.2 | 8.7 | 0.00 | 0.00 | 0.00 | 57 | 1023.2 |
| 20260501180804 | 58 | 254 | 7.8 | 10.4 | 0.00 | 0.00 | 0.00 | 57 | 1023.3 |
| 20260501180304 | 59 | 263 | 6.1 | 10.4 | 0.00 | 0.00 | 0.00 | 56 | 1023.3 |
| 20260501180101 | 58 | 273 | 6.1 | 9.6 | 0.00 | 0.00 | 0.00 | 56 | 1023.2 |
| 20260501174804 | 60 | 257 | 5.2 | 7.0 | 0.00 | 0.00 | 0.00 | 58 | 1023.4 |
| 20260501174559 | 59 | 252 | 4.3 | 7.0 | 0.00 | 0.00 | 0.00 | 58 | 1023.4 |
| 20260501174304 | 60 | 266 | 2.6 | 6.1 | 0.00 | 0.00 | 0.00 | 57 | 1023.4 |
| 20260501173804 | 60 | 259 | 3.5 | 7.0 | 0.00 | 0.00 | 0.00 | 56 | 1023.4 |
| 20260501173304 | 60 | 270 | 4.3 | 7.8 | 0.00 | 0.00 | 0.00 | 55 | 1023.5 |
| 20260501173103 | 60 | 270 | 4.3 | 7.8 | 0.00 | 0.00 | 0.00 | 54 | 1023.4 |
| 20260501171803 | 61 | 262 | 5.2 | 7.8 | 0.00 | 0.00 | 0.00 | 53 | 1023.6 |
| 20260501171558 | 60 | 257 | 6.1 | 7.8 | 0.00 | 0.00 | 0.00 | 51 | 1023.6 |
| 20260501171304 | 61 | 271 | 4.3 | 7.0 | 0.00 | 0.00 | 0.00 | 51 | 1023.7 |
| 20260501170805 | 61 | 253 | 6.1 | 7.0 | 0.00 | 0.00 | 0.00 | 50 | 1023.6 |
| 20260501170304 | 61 | 254 | 4.3 | 6.1 | 0.00 | 0.00 | 0.00 | 52 | 1023.8 |
| 20260501170057 | 61 | 247 | 2.6 | 5.2 | 0.00 | 0.00 | 0.00 | 51 | 1023.6 |
| 20260501164804 | 61 | 292 | 3.5 | 6.1 | 0.00 | 0.00 | 0.00 | 53 | 1023.9 |
| 20260501164604 | 60 | 288 | 3.5 | 5.2 | 0.00 | 0.00 | 0.00 | 54 | 1023.9 |
| 20260501164304 | 61 | 302 | 3.5 | 5.2 | 0.00 | 0.00 | 0.00 | 57 | 1024.0 |
| 20260501163804 | 60 | 316 | 3.5 | 4.3 | 0.00 | 0.00 | 0.00 | 58 | 1024.1 |